Location: Alaçam Da??
(36.8833°N, 29.7167°E)
Time: 11:18:57
(UTC+00:00)

Daily predictions for brighter satellites

Satellite Brightness Start Highest point End
(mag) Time Altitude Azimuth Time Altitude Azimuth Time Altitude Azimuth
SL-8 Rocket 4.2 16:55:54 10° SSE 17:01:57 55° E 17:08:04 10° NNE
USA 238 DEB 4.4 16:55:41 10° NNW 17:02:59 49° NE 17:10:49 10° SE
USA 238 4.4 16:55:52 10° NNW 17:03:09 49° NE 17:10:59 10° SE
Spot 4 Rocket 4.2 16:59:18 10° SSE 17:04:25 84° WSW 17:09:33 10° NNW
Cosmos 2278 Rocket 2.4 17:00:14 10° NNW 17:05:48 54° ENE 17:11:18 10° SE
OAO 3 Copernicus 4.4 17:02:56 10° W 17:07:57 73° S 17:12:56 10° E
Timation 2 Rocket 4.4 17:03:07 10° NNW 17:09:24 52° ENE 17:15:53 10° SE
SL-8 R/B 3.9 17:06:28 10° WSW 17:11:12 75° NW 17:15:55 10° NE
OAO 2 Rocket 3.5 17:06:30 10° WSW 17:11:39 64° S 17:16:42 10° E
Cosmos 1125 Rocket 3.6 17:06:58 10° S 17:12:02 56° ESE 17:17:11 10° NNE
Cosmos 2341 Rocket 4.0 17:08:30 10° S 17:14:41 67° E 17:20:57 10° NNE
ERS-1 Rocket 4.4 17:14:39 10° ESE 17:18:07 19° ENE 17:21:36 10° NNE
Cosmos 2366 rocket 3.9 17:13:25 10° S 17:19:30 69° E 17:25:36 10° NNE
COBE Rocket 4.3 17:15:51 10° N 17:20:55 74° WNW 17:26:02 10° SSW
In-Cosmos 22 Rocket 4.1 17:18:29 10° N 17:23:49 87° E 17:29:10 10° S
Cosmos 44 3.6 17:24:14 10° S 17:28:56 48° ESE 17:33:56 10° NE
SL-16 R/B 2.7 17:26:23 10° SSE 17:31:26 35° ESE 17:36:31 10° NE
NOSS 3 (A) 3.7 17:32:10 10° SSW 17:34:04 39° ESE 17:35:24 14° NE
Okean O Rocket 3.7 17:38:37 10° E 17:39:41 11° ENE 17:40:55 10° NE
Cosmos 1378 Rocket 4.1 17:37:30 10° N 17:41:34 37° E 17:44:32 16° SE
Longmarch 3A Rocket 4.5 17:38:02 10° SW 17:44:46 16° S 17:47:35 12° SSE
SPOT 5 2.6 17:41:41 10° SSE 17:46:15 82° ENE 17:50:40 10° N
CZ-4 R/B 1.4 17:43:55 16° SE 17:46:42 49° ENE 17:50:16 10° N
Cosmos 1656 Rocket 4.3 17:47:58 10° N 17:53:03 37° ENE 17:56:02 22° ESE
Cosmos 1821 Rocket 4.0 17:48:45 10° S 17:55:00 87° E 18:01:23 10° N
IRAS Rocket 4.2 17:50:03 10° SSE 17:55:31 78° ENE 18:01:00 10° NNW
Terra 2.4 17:53:32 22° ESE 17:55:56 36° ENE 18:00:14 10° N
Cosmos 1733 Rocket 3.4 17:52:04 10° SSW 17:56:23 68° W 18:00:46 10° N
CZ-4B R/B 3.6 17:55:16 15° SSE 17:58:17 87° ENE 18:02:08 10° NNW
Cosmos 1025 Rocket 3.8 17:54:38 10° NNE 17:58:28 31° ENE 17:59:43 26° ESE
Cosmos 2237 Rocket 4.1 17:54:20 10° SW 17:59:26 34° WNW 18:04:35 10° N
Resurs 01 Rocket 4.3 17:58:46 10° SW 18:01:47 18° W 18:04:49 10° NW
Cosmos 2242 Rocket 3.5 17:57:34 10° N 18:02:01 89° E 18:05:50 13° S
Helios 1A Rocket 2.5 17:59:43 10° N 18:02:55 71° WNW 18:06:04 10° SSW
CSL-04 Rocket 3.9 17:59:15 10° S 18:04:46 75° WSW 18:10:20 10° NNW
Meteor 2-15 Rocket 4.5 17:58:56 10° S 18:05:00 85° W 18:11:08 10° N
Cosmos 2150 Rocket 4.0 18:01:03 10° S 18:06:02 55° ESE 18:11:05 10° NNE
Meteor 2-16 Rocket 4.5 18:11:06 10° N 18:17:10 59° E 18:20:28 27° SSE
USA 59 Rocket 0.0 18:16:32 10° NNW 18:20:21 89° ENE 18:22:13 37° SSE
Gbstr 26 Del rocket 3.3 18:14:56 10° SW 18:20:33 63° SE 18:24:22 15° ENE
Cosmos 1400 Rocket 4.5 18:17:21 10° SW 18:20:34 31° WNW 18:23:48 10° NNW
Cosmos 1346 Rocket 2.5 18:17:08 10° N 18:20:40 57° E 18:20:53 56° E
OAO 3 Rocket 3.2 18:16:12 10° W 18:20:46 59° S 18:22:04 42° SE
Feng Yun 1-1 Rocket 4.2 18:17:10 19° SSE 18:21:10 87° W 18:26:37 10° NNW
ASTEX 1 3.9 18:20:30 36° ESE 18:21:30 41° ENE 18:26:07 10° N
SL-4 R/B 1.6 18:18:34 10° SW 18:22:20 75° SE 18:23:54 34° ENE
Cosmos 1943 Rocket 4.2 18:18:16 10° NW 18:22:46 25° WSW 18:27:13 10° SSW
Meteor 1-31 Rocket 3.7 18:21:37 17° SSW 18:23:56 40° W 18:27:16 10° NNW
Dummy Sat-02 4.4 18:24:49 55° S 18:25:32 83° E 18:29:07 10° N
ADEOS 3.5 18:25:50 34° SSE 18:28:06 74° ENE 18:33:19 10° N
Cosmos 1869 4.1 18:32:16 31° NE 18:32:16 31° NE 18:34:27 10° NNE
MOS 1 4.3 18:27:44 24° S 18:31:17 82° WSW 18:36:58 10° NNW
CBERS 1 LM4 rocket 4.3 18:29:51 33° S 18:31:58 83° WSW 18:36:44 10° NNW
Cosmos 2369 Rocket 2.9 18:27:03 10° N 18:32:12 36° ENE 18:33:12 34° E
Cosmos 2285 Rocket 3.9 18:26:00 10° SSW 18:32:22 88° ESE 18:38:45 10° NNE
USA 234 3.6 18:28:18 10° NE 18:34:48 67° NW 18:41:16 10° WSW
SL-08 R/B 3.4 18:33:40 10° N 18:38:35 79° WNW 18:42:30 16° SSW
Cosmos 1943 3.3 18:41:49 49° SE 18:42:27 52° ESE 18:47:56 10° NNE
CZ-4B R/B 3.3 18:41:50 32° S 18:44:34 74° WSW 18:50:14 10° NNW
Cosmos 2221 Rocket 3.4 18:40:41 10° N 18:45:06 76° E 18:45:17 74° ESE
YAOGAN 11 3.9 18:41:04 10° NNE 18:45:22 84° ESE 18:45:51 70° S
SL-08 R/B 4.4 18:45:09 10° N 18:51:23 74° E 18:53:09 49° SSE
OAO 2 Rocket 3.2 18:51:00 10° W 18:56:04 69° S 18:56:04 69° S
ERS-1 Rocket 3.9 18:54:02 26° SSW 18:56:26 44° W 19:01:13 10° NNW
NOSS 2-1 (D) 4.4 18:56:01 10° NW 18:59:45 42° WSW 19:00:11 41° SW
Cosmos 2263 4.5 18:57:46 10° N 19:03:16 49° ENE 19:03:18 49° ENE
Okean-O 2.8 19:07:12 69° NW 19:07:12 69° NW 19:11:07 10° NNW
NOSS 2-1 (E) 4.3 19:04:11 10° NW 19:07:43 46° WSW 19:07:43 46° WSW
Spot 3 4.5 19:08:57 75° ENE 19:08:57 75° ENE 19:14:15 10° N
Cosmos 1934 Rocket 4.3 19:10:21 25° SSW 19:14:01 62° W 19:20:11 10° N
CZ-4B R/B 4.3 19:15:34 39° NNE 19:15:34 39° NNE 19:18:55 10° N
Okean O Rocket 2.1 19:15:51 55° WNW 19:15:51 55° WNW 19:19:36 10° NNW
SL-16 R/B 4.0 19:10:37 10° WSW 19:15:30 30° WNW 19:20:26 10° N
Ariane Rocket 3.9 19:17:09 37° NE 19:17:09 37° NE 19:20:45 10° N
Cosmos 1782 Rocket 4.4 19:21:40 46° NW 19:21:40 46° NW 19:25:03 10° N
Spot 2 Rocket 3.9 19:23:16 53° WSW 19:23:24 53° W 19:28:20 10° NNW
Milstar 3 4.0 19:17:33 10° SW 19:41:40 - E 19:24:35 43° S
USA 245 4.4 19:28:49 56° NNW 19:28:49 56° NNW 19:33:03 10° NNW
ATLAS 5 CENTAUR R/B 4.2 19:31:18 10° NNE 19:31:56 11° NNE 19:31:56 11° NNE
Terra 3.9 19:32:10 17° WSW 19:33:32 19° W 19:36:54 10° NW
Cosmos 1140 Rocket 4.2 19:29:06 10° NNW 19:32:51 48° N 19:32:51 48° N
NOSS 3-1 (C) 4.1 19:26:47 10° NNW 19:34:21 81° ENE 19:35:43 66° SE
Cosmos 967 Rocket 4.4 19:31:54 10° NNW 19:38:09 83° WNW 19:38:09 83° WNW
BREEZE-M DEB (TANK) 3.8 19:39:51 10° NW 19:43:45 65° NE 19:43:55 64° NE
COSMOS 2455 3.7 19:53:42 10° NNW 19:58:10 42° NNE 19:58:10 42° NNE
SJ 16-02 4.0 20:03:24 10° N 20:04:02 13° N 20:04:02 13° N
Cosmos 2369 Rocket 3.9 20:11:21 10° NW 20:14:59 26° W 20:14:59 26° W
NOSS 3-1 (A) 4.2 20:26:26 10° NNW 20:33:20 76° NNW 20:33:20 76° NNW
ATLAS 2AS CENTAUR R/B 3.8 21:38:07 38° N 21:38:07 38° N 21:42:26 10° NNE
ACS3 Solar Sail 4.0 21:59:30 10° NE 22:01:13 16° NE 22:01:13 16° NE
Cosmos 1980 Rocket 4.3 22:24:35 10° NNW 22:26:39 23° N 22:26:39 23° N
ATLAS 3B R/B 3.8 22:50:52 10° NNW 22:55:41 42° NNW 22:55:41 42° NNW
Cosmos 2082 Rocket 4.0 23:02:51 28° N 23:02:51 28° N 23:05:33 10° NNE
Cosmos 2333 Rocket 4.3 22:57:23 10° N 23:01:30 20° NE 23:02:07 20° ENE
SL-16 R/B 3.6 23:23:37 10° N 23:27:50 35° NE 23:27:50 35° NE
ACS3 Solar Sail 2.8 23:40:55 10° N 23:44:47 37° NNW 23:44:47 37° NNW
IDEFIX/ARIANE 42P 3.9 23:43:24 10° NNE 23:46:20 35° NNE 23:46:20 35° NNE
ADEOS Rocket 3.7 23:43:48 10° NNE 23:51:28 65° E 23:52:01 63° ESE
